| time (UTC) | temp F | wind direction | speed MPH | gust MPH | rain 1hr in | rain 24hr in | rain mn in | humidity % | barometer mb |
| 20260508065355 | 39 | 173 | 2.0 | 6.0 | 0.00 | 0.00 | 0.00 | 76 | 1010.2 |
| 20260508064855 | 39 | 173 | 2.0 | 4.0 | 0.00 | 0.00 | 0.00 | 76 | 1010.3 |
| 20260508064625 | 39 | 180 | 2.0 | 6.0 | 0.00 | 0.00 | 0.00 | 76 | 1010.3 |
| 20260508064127 | 39 | 181 | 3.0 | 6.0 | 0.00 | 0.00 | 0.00 | 75 | 1010.3 |
| 20260508063350 | 39 | 160 | 3.0 | 5.0 | 0.00 | 0.00 | 0.00 | 75 | 1010.3 |
| 20260508062848 | 39 | 170 | 4.0 | 7.0 | 0.00 | 0.00 | 0.00 | 75 | 1010.4 |
| 20260508062620 | 39 | 173 | 4.0 | 8.0 | 0.00 | 0.00 | 0.00 | 75 | 1010.3 |
| 20260508061849 | 39 | 176 | 3.0 | 8.0 | 0.00 | 0.00 | 0.00 | 75 | 1010.3 |
| 20260508061354 | 39 | 172 | 4.0 | 10.0 | 0.00 | 0.00 | 0.00 | 75 | 1010.4 |
| 20260508061348 | 39 | 181 | 3.0 | 6.0 | 0.00 | 0.00 | 0.00 | 75 | 1010.4 |
| 20260508060615 | 39 | 171 | 5.0 | 10.0 | 0.00 | 0.00 | 0.00 | 75 | 1010.5 |
| 20260508055844 | 39 | 188 | 5.0 | 9.0 | 0.00 | 0.00 | 0.00 | 74 | 1010.5 |
| 20260508055342 | 39 | 195 | 5.0 | 9.0 | 0.00 | 0.00 | 0.00 | 75 | 1010.5 |
| 20260508054842 | 39 | 180 | 5.0 | 9.0 | 0.00 | 0.00 | 0.00 | 75 | 1010.6 |
| 20260508054342 | 39 | 180 | 4.0 | 9.0 | 0.00 | 0.00 | 0.00 | 75 | 1010.5 |
| 20260508053843 | 39 | 169 | 3.0 | 9.0 | 0.00 | 0.00 | 0.00 | 76 | 1010.6 |
| 20260508053339 | 39 | 171 | 3.0 | 5.0 | 0.00 | 0.00 | 0.00 | 75 | 1010.7 |
| 20260508052839 | 39 | 168 | 3.0 | 7.0 | 0.00 | 0.00 | 0.00 | 76 | 1010.7 |
| 20260508052336 | 39 | 177 | 3.0 | 9.0 | 0.00 | 0.00 | 0.00 | 75 | 1010.7 |
| 20260508051836 | 39 | 203 | 3.0 | 9.0 | 0.00 | 0.00 | 0.00 | 75 | 1010.8 |
| 20260508051336 | 40 | 152 | 5.0 | 8.0 | 0.00 | 0.00 | 0.00 | 75 | 1010.7 |
| 20260508050837 | 40 | 178 | 5.0 | 8.0 | 0.00 | 0.00 | 0.00 | 75 | 1010.8 |
| 20260508050331 | 40 | 173 | 4.0 | 7.0 | 0.00 | 0.00 | 0.00 | 75 | 1010.8 |
| 20260508045832 | 40 | 184 | 4.0 | 8.0 | 0.00 | 0.00 | 0.00 | 75 | 1010.9 |
| 20260508045334 | 40 | 158 | 5.0 | 8.0 | 0.00 | 0.00 | 0.00 | 74 | 1010.8 |
| 20260508044834 | 40 | 174 | 5.0 | 8.0 | 0.00 | 0.00 | 0.00 | 74 | 1010.9 |
| 20260508044330 | 41 | 176 | 5.0 | 11.0 | 0.00 | 0.00 | 0.00 | 74 | 1010.8 |
| 20260508043831 | 41 | 180 | 5.0 | 11.0 | 0.00 | 0.00 | 0.00 | 74 | 1010.8 |
| 20260508043325 | 41 | 198 | 4.0 | 7.0 | 0.00 | 0.00 | 0.00 | 75 | 1010.8 |
| 20260508043055 | 41 | 169 | 3.0 | 7.0 | 0.00 | 0.00 | 0.00 | 75 | 1010.8 |
| 20260508042324 | 41 | 190 | 3.0 | 7.0 | 0.00 | 0.00 | 0.00 | 75 | 1010.9 |
| 20260508041824 | 41 | 169 | 3.0 | 5.0 | 0.00 | 0.00 | 0.00 | 75 | 1010.8 |
| 20260508041326 | 41 | 178 | 3.0 | 5.0 | 0.00 | 0.00 | 0.00 | 76 | 1010.8 |
| 20260508040825 | 41 | 168 | 2.0 | 7.0 | 0.00 | 0.00 | 0.00 | 75 | 1010.8 |
| 20260508040320 | 41 | 167 | 2.0 | 7.0 | 0.00 | 0.00 | 0.00 | 75 | 1010.8 |
| 20260508035819 | 41 | 164 | 2.0 | 5.0 | 0.00 | 0.00 | 0.00 | 75 | 1010.7 |
| 20260508035552 | 41 | 173 | 2.0 | 5.0 | 0.00 | 0.00 | 0.00 | 75 | 1010.7 |
| 20260508034821 | 41 | 142 | 3.0 | 5.0 | 0.00 | 0.00 | 0.00 | 75 | 1010.7 |
| 20260508034318 | 41 | 142 | 2.0 | 5.0 | 0.00 | 0.00 | 0.00 | 75 | 1010.7 |
| 20260508033821 | 42 | 150 | 3.0 | 6.0 | 0.00 | 0.00 | 0.00 | 74 | 1010.6 |
| 20260508033314 | 42 | 166 | 3.0 | 8.0 | 0.00 | 0.00 | 0.00 | 74 | 1010.7 |
| 20260508032812 | 42 | 150 | 4.0 | 8.0 | 0.00 | 0.00 | 0.00 | 74 | 1010.6 |
| 20260508032313 | 42 | 136 | 4.0 | 8.0 | 0.00 | 0.00 | 0.00 | 74 | 1010.6 |
| 20260508031812 | 42 | 142 | 4.0 | 8.0 | 0.00 | 0.00 | 0.00 | 73 | 1010.6 |
| 20260508031312 | 43 | 136 | 3.0 | 7.0 | 0.00 | 0.00 | 0.00 | 72 | 1010.6 |
| 20260508030814 | 43 | 140 | 3.0 | 7.0 | 0.00 | 0.00 | 0.00 | 72 | 1010.7 |
| 20260508030306 | 43 | 135 | 3.0 | 7.0 | 0.00 | 0.00 | 0.00 | 70 | 1010.7 |
| 20260508025804 | 44 | 138 | 4.0 | 9.0 | 0.00 | 0.00 | 0.00 | 69 | 1010.7 |
| 20260508025535 | 44 | 136 | 4.0 | 9.0 | 0.00 | 0.00 | 0.00 | 67 | 1010.7 |
| 20260508025037 | 45 | 135 | 3.0 | 9.0 | 0.00 | 0.00 | 0.00 | 64 | 1010.6 |
| 20260508024305 | 46 | 106 | 1.0 | 4.0 | 0.00 | 0.00 | 0.00 | 66 | 1010.6 |
| 20260508023806 | 46 | 335 | 0.0 | 1.0 | 0.00 | 0.00 | 0.00 | 63 | 1010.5 |
| 20260508023302 | 47 | 335 | 0.0 | 0.0 | 0.00 | 0.00 | 0.00 | 60 | 1010.5 |
| 20260508022800 | 47 | 335 | 0.0 | 1.0 | 0.00 | 0.00 | 0.00 | 57 | 1010.5 |
| 20260508022301 | 47 | 335 | 0.0 | 1.0 | 0.00 | 0.00 | 0.00 | 53 | 1010.5 |
| 20260508021805 | 47 | 335 | 0.0 | 1.0 | 0.00 | 0.00 | 0.00 | 52 | 1010.5 |
| 20260508021301 | 48 | 335 | 0.0 | 1.0 | 0.00 | 0.00 | 0.00 | 52 | 1010.4 |
| 20260508020805 | 48 | 335 | 0.0 | 1.0 | 0.00 | 0.00 | 0.00 | 52 | 1010.4 |
| 20260508020312 | 48 | 335 | 0.0 | 0.0 | 0.00 | 0.00 | 0.00 | 49 | 1010.3 |
| 20260508015804 | 49 | 335 | 0.0 | 1.0 | 0.00 | 0.00 | 0.00 | 47 | 1010.3 |
| 20260508015256 | 49 | 335 | 0.0 | 2.0 | 0.00 | 0.00 | 0.00 | 48 | 1010.3 |
| 20260508014758 | 49 | 336 | 1.0 | 3.0 | 0.00 | 0.00 | 0.00 | 49 | 1010.2 |
| 20260508014257 | 49 | 335 | 2.0 | 4.0 | 0.00 | 0.00 | 0.00 | 48 | 1010.2 |
| 20260508013753 | 50 | 327 | 3.0 | 5.0 | 0.00 | 0.00 | 0.00 | 50 | 1010.2 |
| 20260508013254 | 50 | 327 | 3.0 | 5.0 | 0.00 | 0.00 | 0.00 | 48 | 1010.1 |
| 20260508012752 | 50 | 329 | 2.0 | 5.0 | 0.00 | 0.00 | 0.00 | 47 | 1010.1 |
| 20260508012258 | 51 | 323 | 3.0 | 5.0 | 0.00 | 0.00 | 0.00 | 47 | 1010.0 |
| 20260508011758 | 51 | 333 | 3.0 | 6.0 | 0.00 | 0.00 | 0.00 | 47 | 1010.0 |
| 20260508011253 | 51 | 335 | 3.0 | 6.0 | 0.00 | 0.00 | 0.00 | 46 | 1009.9 |
| 20260508011022 | 51 | 336 | 2.0 | 5.0 | 0.00 | 0.00 | 0.00 | 46 | 1009.9 |
| 20260508010358 | 51 | 335 | 2.0 | 4.0 | 0.00 | 0.00 | 0.00 | 46 | 1009.9 |
| 20260508005249 | 52 | 333 | 2.0 | 6.0 | 0.00 | 0.00 | 0.00 | 46 | 1009.6 |
| 20260508004748 | 52 | 332 | 3.0 | 6.0 | 0.00 | 0.00 | 0.00 | 46 | 1009.6 |
| 20260508004247 | 52 | 333 | 2.0 | 5.0 | 0.00 | 0.00 | 0.00 | 46 | 1009.6 |
| 20260508003747 | 52 | 326 | 2.0 | 4.0 | 0.00 | 0.00 | 0.00 | 47 | 1009.5 |
| 20260508003253 | 52 | 328 | 3.0 | 6.0 | 0.00 | 0.00 | 0.00 | 46 | 1009.3 |
| 20260508003020 | 52 | 329 | 3.0 | 9.0 | 0.00 | 0.00 | 0.00 | 45 | 1009.2 |
| 20260508002249 | 52 | 348 | 2.0 | 9.0 | 0.00 | 0.00 | 0.00 | 46 | 1009.2 |
| 20260508001749 | 52 | 13 | 2.0 | 4.0 | 0.00 | 0.00 | 0.00 | 46 | 1009.2 |
| 20260508001744 | 52 | 355 | 2.0 | 4.0 | 0.00 | 0.00 | 0.00 | 46 | 1009.2 |
| 20260508000746 | 52 | 5 | 2.0 | 5.0 | 0.00 | 0.00 | 0.00 | 45 | 1009.2 |
| 20260508000517 | 52 | 340 | 3.0 | 7.0 | 0.00 | 0.00 | 0.00 | 46 | 1009.2 |
| 20260507235652 | 53 | 323 | 4.0 | 7.0 | 0.00 | 0.00 | 0.00 | 45 | 1009.2 |
| 20260507235152 | 53 | 311 | 4.0 | 9.0 | 0.00 | 0.00 | 0.00 | 45 | 1009.1 |
| 20260507234653 | 53 | 304 | 3.0 | 9.0 | 0.00 | 0.00 | 0.00 | 45 | 1009.2 |
| 20260507234201 | 53 | 251 | 2.0 | 5.0 | 0.00 | 0.00 | 0.00 | 42 | 1009.1 |
| 20260507234150 | 53 | 267 | 2.0 | 5.0 | 0.00 | 0.00 | 0.00 | 43 | 1009.1 |
| 20260507233149 | 53 | 306 | 2.0 | 5.0 | 0.00 | 0.00 | 0.00 | 44 | 1009.1 |
| 20260507232649 | 53 | 296 | 3.0 | 7.0 | 0.00 | 0.00 | 0.00 | 43 | 1009.1 |
| 20260507232148 | 53 | 299 | 4.0 | 8.0 | 0.00 | 0.00 | 0.00 | 43 | 1009.1 |
| 20260507231921 | 53 | 309 | 5.0 | 8.0 | 0.00 | 0.00 | 0.00 | 43 | 1009.0 |
| 20260507231154 | 53 | 343 | 4.0 | 10.0 | 0.00 | 0.00 | 0.00 | 43 | 1009.1 |
| 20260507230645 | 53 | 312 | 4.0 | 10.0 | 0.00 | 0.00 | 0.00 | 44 | 1009.1 |
| 20260507230146 | 53 | 323 | 5.0 | 12.0 | 0.00 | 0.00 | 0.00 | 43 | 1009.2 |
| 20260507225646 | 53 | 312 | 5.0 | 12.0 | 0.00 | 0.00 | 0.00 | 43 | 1009.2 |
| 20260507225147 | 53 | 333 | 4.0 | 9.0 | 0.00 | 0.00 | 0.00 | 42 | 1009.2 |
| 20260507224645 | 53 | 318 | 4.0 | 8.0 | 0.00 | 0.00 | 0.00 | 43 | 1009.3 |
| 20260507224146 | 53 | 320 | 4.0 | 8.0 | 0.00 | 0.00 | 0.00 | 44 | 1009.3 |
| 20260507223640 | 53 | 329 | 3.0 | 7.0 | 0.00 | 0.00 | 0.00 | 44 | 1009.3 |
| 20260507223140 | 53 | 315 | 3.0 | 7.0 | 0.00 | 0.00 | 0.00 | 44 | 1009.3 |
| 20260507222641 | 53 | 294 | 3.0 | 6.0 | 0.00 | 0.00 | 0.00 | 45 | 1009.3 |
| 20260507222140 | 53 | 236 | 2.0 | 8.0 | 0.00 | 0.00 | 0.00 | 43 | 1009.3 |
| 20260507221642 | 53 | 273 | 2.0 | 8.0 | 0.00 | 0.00 | 0.00 | 45 | 1009.5 |
| 20260507221410 | 53 | 244 | 3.0 | 10.0 | 0.00 | 0.00 | 0.00 | 44 | 1009.5 |
| 20260507220640 | 53 | 231 | 4.0 | 10.0 | 0.00 | 0.00 | 0.00 | 46 | 1009.5 |
| 20260507220137 | 53 | 328 | 3.0 | 8.0 | 0.00 | 0.00 | 0.00 | 46 | 1009.5 |
| 20260507215637 | 52 | 309 | 4.0 | 10.0 | 0.00 | 0.00 | 0.00 | 47 | 1009.5 |
| 20260507215138 | 52 | 280 | 5.0 | 11.0 | 0.00 | 0.00 | 0.00 | 45 | 1009.6 |
| 20260507214636 | 52 | 298 | 4.0 | 11.0 | 0.00 | 0.00 | 0.00 | 45 | 1009.5 |
| 20260507214135 | 52 | 294 | 3.0 | 10.0 | 0.00 | 0.00 | 0.00 | 46 | 1009.5 |
| 20260507213636 | 53 | 276 | 4.0 | 10.0 | 0.00 | 0.00 | 0.00 | 45 | 1009.5 |
| 20260507213136 | 53 | 215 | 4.0 | 9.0 | 0.00 | 0.00 | 0.00 | 45 | 1009.3 |
| 20260507212629 | 53 | 292 | 4.0 | 9.0 | 0.00 | 0.00 | 0.00 | 43 | 1009.5 |
| 20260507212129 | 54 | 299 | 5.0 | 12.0 | 0.00 | 0.00 | 0.00 | 43 | 1009.5 |
| 20260507211903 | 55 | 254 | 4.0 | 14.0 | 0.00 | 0.00 | 0.00 | 42 | 1009.6 |
| 20260507211129 | 55 | 234 | 3.0 | 14.0 | 0.00 | 0.00 | 0.00 | 46 | 1009.3 |
| 20260507210908 | 53 | 145 | 3.0 | 9.0 | 0.00 | 0.00 | 0.00 | 45 | 1009.5 |
| 20260507210130 | 53 | 270 | 4.0 | 9.0 | 0.00 | 0.00 | 0.00 | 44 | 1009.6 |
| 20260507205630 | 53 | 284 | 3.0 | 9.0 | 0.00 | 0.00 | 0.00 | 45 | 1009.7 |
| 20260507205124 | 54 | 289 | 3.0 | 10.0 | 0.00 | 0.00 | 0.00 | 45 | 1009.8 |
| 20260507204624 | 54 | 227 | 4.0 | 13.0 | 0.00 | 0.00 | 0.00 | 45 | 1009.8 |
| 20260507204125 | 53 | 246 | 4.0 | 13.0 | 0.00 | 0.00 | 0.00 | 46 | 1009.8 |
| 20260507203624 | 53 | 199 | 4.0 | 10.0 | 0.00 | 0.00 | 0.00 | 47 | 1009.8 |
| 20260507203125 | 53 | 242 | 4.0 | 10.0 | 0.00 | 0.00 | 0.00 | 46 | 1009.9 |
| 20260507202624 | 53 | 236 | 5.0 | 10.0 | 0.00 | 0.00 | 0.00 | 46 | 1010.0 |
| 20260507202124 | 53 | 271 | 5.0 | 13.0 | 0.00 | 0.00 | 0.00 | 46 | 1010.0 |
| 20260507201623 | 53 | 268 | 4.0 | 13.0 | 0.00 | 0.00 | 0.00 | 48 | 1010.0 |
| 20260507201119 | 53 | 225 | 5.0 | 14.0 | 0.00 | 0.00 | 0.00 | 46 | 1010.1 |
| 20260507200617 | 53 | 284 | 6.0 | 14.0 | 0.00 | 0.00 | 0.00 | 46 | 1010.2 |
| 20260507200349 | 54 | 267 | 6.0 | 14.0 | 0.00 | 0.00 | 0.00 | 47 | 1010.1 |
| 20260507195617 | 54 | 244 | 5.0 | 14.0 | 0.00 | 0.00 | 0.00 | 47 | 1010.1 |
| 20260507195118 | 54 | 311 | 4.0 | 9.0 | 0.00 | 0.00 | 0.00 | 46 | 1010.2 |
| 20260507194612 | 52 | 269 | 5.0 | 12.0 | 0.00 | 0.00 | 0.00 | 47 | 1010.3 |
| 20260507194111 | 52 | 277 | 7.0 | 16.0 | 0.00 | 0.00 | 0.00 | 47 | 1010.3 |
| 20260507193612 | 51 | 183 | 6.0 | 16.0 | 0.00 | 0.00 | 0.00 | 50 | 1010.3 |
| 20260507193112 | 52 | 171 | 5.0 | 12.0 | 0.00 | 0.00 | 0.00 | 53 | 1010.3 |
| 20260507192611 | 52 | 195 | 6.0 | 13.0 | 0.00 | 0.00 | 0.00 | 52 | 1010.4 |
| 20260507192114 | 52 | 207 | 6.0 | 13.0 | 0.00 | 0.00 | 0.00 | 52 | 1010.5 |
| 20260507191843 | 52 | 184 | 5.0 | 10.0 | 0.00 | 0.00 | 0.00 | 53 | 1010.5 |
| 20260507191336 | 51 | 211 | 5.0 | 13.0 | 0.00 | 0.00 | 0.00 | 52 | 1010.5 |
| 20260507190605 | 51 | 188 | 6.0 | 13.0 | 0.00 | 0.00 | 0.00 | 52 | 1010.5 |
| 20260507190336 | 51 | 246 | 6.0 | 12.0 | 0.00 | 0.00 | 0.00 | 51 | 1010.5 |
| 20260507185606 | 51 | 211 | 6.0 | 12.0 | 0.00 | 0.00 | 0.00 | 51 | 1010.5 |
| 20260507185106 | 51 | 221 | 5.0 | 12.0 | 0.00 | 0.00 | 0.00 | 51 | 1010.5 |
| 20260507184601 | 51 | 213 | 4.0 | 10.0 | 0.00 | 0.00 | 0.00 | 51 | 1010.5 |
| 20260507184059 | 51 | 223 | 4.0 | 10.0 | 0.00 | 0.00 | 0.00 | 50 | 1010.6 |
| 20260507183600 | 51 | 205 | 3.0 | 10.0 | 0.00 | 0.00 | 0.00 | 51 | 1010.7 |
| 20260507183100 | 51 | 194 | 3.0 | 9.0 | 0.00 | 0.00 | 0.00 | 49 | 1010.7 |
| 20260507182559 | 51 | 259 | 4.0 | 11.0 | 0.00 | 0.00 | 0.00 | 49 | 1010.7 |
| 20260507182100 | 51 | 242 | 4.0 | 11.0 | 0.00 | 0.00 | 0.00 | 49 | 1010.7 |
| 20260507181553 | 51 | 241 | 4.0 | 10.0 | 0.00 | 0.00 | 0.00 | 50 | 1010.8 |
| 20260507181053 | 51 | 270 | 4.0 | 13.0 | 0.00 | 0.00 | 0.00 | 49 | 1010.8 |
| 20260507180824 | 51 | 304 | 4.0 | 13.0 | 0.00 | 0.00 | 0.00 | 50 | 1010.8 |
| 20260507180324 | 51 | 179 | 4.0 | 14.0 | 0.00 | 0.00 | 0.00 | 49 | 1010.9 |
| 20260507175553 | 51 | 240 | 5.0 | 16.0 | 0.00 | 0.00 | 0.00 | 49 | 1010.9 |
| 20260507175054 | 51 | 276 | 6.0 | 16.0 | 0.00 | 0.00 | 0.00 | 50 | 1011.0 |
| 20260507174552 | 51 | 204 | 5.0 | 11.0 | 0.00 | 0.00 | 0.00 | 51 | 1011.1 |
| 20260507174052 | 50 | 168 | 5.0 | 10.0 | 0.00 | 0.00 | 0.00 | 50 | 1011.1 |
| 20260507173551 | 51 | 194 | 4.0 | 10.0 | 0.00 | 0.00 | 0.00 | 49 | 1011.2 |
| 20260507173051 | 51 | 261 | 4.0 | 9.0 | 0.00 | 0.00 | 0.00 | 50 | 1011.2 |
| 20260507172823 | 51 | 190 | 4.0 | 11.0 | 0.00 | 0.00 | 0.00 | 52 | 1011.3 |
| 20260507172052 | 50 | 293 | 4.0 | 11.0 | 0.00 | 0.00 | 0.00 | 48 | 1011.3 |
| 20260507171822 | 50 | 300 | 5.0 | 10.0 | 0.00 | 0.00 | 0.00 | 47 | 1011.4 |
| 20260507171318 | 51 | 232 | 5.0 | 10.0 | 0.00 | 0.00 | 0.00 | 48 | 1011.4 |
| 20260507170546 | 50 | 284 | 4.0 | 9.0 | 0.00 | 0.00 | 0.00 | 49 | 1011.6 |
| 20260507170045 | 50 | 176 | 4.0 | 9.0 | 0.00 | 0.00 | 0.00 | 47 | 1011.6 |
| 20260507165545 | 50 | 179 | 4.0 | 8.0 | 0.00 | 0.00 | 0.00 | 50 | 1011.7 |
| 20260507165045 | 49 | 276 | 4.0 | 10.0 | 0.00 | 0.00 | 0.00 | 48 | 1011.8 |
| 20260507164547 | 50 | 263 | 4.0 | 10.0 | 0.00 | 0.00 | 0.00 | 47 | 1011.8 |
| 20260507164044 | 50 | 311 | 5.0 | 12.0 | 0.00 | 0.00 | 0.00 | 47 | 1011.8 |
| 20260507163544 | 50 | 310 | 6.0 | 12.0 | 0.00 | 0.00 | 0.00 | 48 | 1011.8 |
| 20260507163044 | 49 | 234 | 5.0 | 12.0 | 0.00 | 0.00 | 0.00 | 48 | 1011.9 |
| 20260507162549 | 50 | 218 | 4.0 | 10.0 | 0.00 | 0.00 | 0.00 | 47 | 1012.1 |
| 20260507162544 | 50 | 296 | 4.0 | 11.0 | 0.00 | 0.00 | 0.00 | 47 | 1011.9 |
| 20260507161543 | 50 | 240 | 4.0 | 12.0 | 0.00 | 0.00 | 0.00 | 47 | 1012.2 |
| 20260507161044 | 50 | 296 | 4.0 | 12.0 | 0.00 | 0.00 | 0.00 | 47 | 1012.3 |
| 20260507160539 | 49 | 306 | 4.0 | 11.0 | 0.00 | 0.00 | 0.00 | 48 | 1012.3 |
| 20260507160037 | 49 | 263 | 4.0 | 11.0 | 0.00 | 0.00 | 0.00 | 48 | 1012.2 |
| 20260507155537 | 49 | 222 | 4.0 | 10.0 | 0.00 | 0.00 | 0.00 | 49 | 1012.3 |
| 20260507155309 | 49 | 211 | 4.0 | 10.0 | 0.00 | 0.00 | 0.00 | 49 | 1012.4 |
| 20260507154537 | 49 | 168 | 4.0 | 12.0 | 0.00 | 0.00 | 0.00 | 49 | 1012.5 |
| 20260507154038 | 48 | 304 | 4.0 | 12.0 | 0.00 | 0.00 | 0.00 | 51 | 1012.4 |
| 20260507153533 | 48 | 309 | 4.0 | 10.0 | 0.00 | 0.00 | 0.00 | 51 | 1012.7 |
| 20260507153303 | 49 | 304 | 4.0 | 10.0 | 0.00 | 0.00 | 0.00 | 51 | 1012.7 |
| 20260507152530 | 48 | 306 | 3.0 | 10.0 | 0.00 | 0.00 | 0.00 | 51 | 1012.8 |
| 20260507152305 | 48 | 278 | 2.0 | 10.0 | 0.00 | 0.00 | 0.00 | 50 | 1012.8 |
| 20260507151533 | 48 | 199 | 3.0 | 7.0 | 0.00 | 0.00 | 0.00 | 49 | 1012.7 |
| 20260507151032 | 48 | 262 | 3.0 | 8.0 | 0.00 | 0.00 | 0.00 | 50 | 1012.9 |
| 20260507150527 | 47 | 190 | 3.0 | 8.0 | 0.00 | 0.00 | 0.00 | 52 | 1012.8 |
| 20260507150027 | 48 | 248 | 3.0 | 9.0 | 0.00 | 0.00 | 0.00 | 49 | 1012.9 |
| 20260507145529 | 47 | 276 | 3.0 | 9.0 | 0.00 | 0.00 | 0.00 | 50 | 1013.0 |
| 20260507145026 | 47 | 269 | 4.0 | 9.0 | 0.00 | 0.00 | 0.00 | 51 | 1013.0 |
| 20260507144526 | 46 | 208 | 4.0 | 11.0 | 0.00 | 0.00 | 0.00 | 53 | 1013.1 |
| 20260507144256 | 46 | 251 | 4.0 | 11.0 | 0.00 | 0.00 | 0.00 | 51 | 1013.2 |
| 20260507143525 | 47 | 225 | 4.0 | 10.0 | 0.00 | 0.00 | 0.00 | 54 | 1013.1 |
| 20260507143021 | 46 | 279 | 4.0 | 10.0 | 0.00 | 0.00 | 0.00 | 53 | 1013.2 |
| 20260507142522 | 46 | 257 | 3.0 | 9.0 | 0.00 | 0.00 | 0.00 | 55 | 1013.3 |
| 20260507142253 | 46 | 259 | 3.0 | 9.0 | 0.00 | 0.00 | 0.00 | 56 | 1013.3 |
| 20260507141521 | 46 | 296 | 3.0 | 10.0 | 0.00 | 0.00 | 0.00 | 56 | 1013.3 |
| 20260507141022 | 45 | 311 | 4.0 | 10.0 | 0.00 | 0.00 | 0.00 | 56 | 1013.3 |
| 20260507140521 | 44 | 263 | 4.0 | 9.0 | 0.00 | 0.00 | 0.00 | 59 | 1013.3 |
| 20260507140022 | 44 | 261 | 3.0 | 8.0 | 0.00 | 0.00 | 0.00 | 59 | 1013.5 |
| 20260507135515 | 44 | 253 | 3.0 | 8.0 | 0.00 | 0.00 | 0.00 | 59 | 1013.4 |
| 20260507135017 | 44 | 277 | 4.0 | 8.0 | 0.00 | 0.00 | 0.00 | 61 | 1013.4 |
| 20260507134513 | 43 | 317 | 3.0 | 8.0 | 0.00 | 0.00 | 0.00 | 62 | 1013.5 |
| 20260507134013 | 42 | 284 | 3.0 | 8.0 | 0.00 | 0.00 | 0.00 | 63 | 1013.5 |
| 20260507133512 | 42 | 250 | 3.0 | 7.0 | 0.00 | 0.00 | 0.00 | 63 | 1013.5 |
| 20260507133013 | 42 | 302 | 3.0 | 10.0 | 0.00 | 0.00 | 0.00 | 64 | 1013.5 |
| 20260507132513 | 42 | 278 | 4.0 | 10.0 | 0.00 | 0.00 | 0.00 | 64 | 1013.5 |
| 20260507132015 | 41 | 279 | 4.0 | 10.0 | 0.00 | 0.00 | 0.00 | 63 | 1013.6 |
| 20260507131512 | 41 | 286 | 3.0 | 9.0 | 0.00 | 0.00 | 0.00 | 63 | 1013.6 |
| 20260507131508 | 41 | 230 | 4.0 | 9.0 | 0.00 | 0.00 | 0.00 | 63 | 1013.5 |
| 20260507130503 | 41 | 274 | 4.0 | 9.0 | 0.00 | 0.00 | 0.00 | 64 | 1013.6 |
| 20260507130005 | 41 | 215 | 4.0 | 10.0 | 0.00 | 0.00 | 0.00 | 63 | 1013.5 |
| 20260507125503 | 41 | 251 | 3.0 | 10.0 | 0.00 | 0.00 | 0.00 | 64 | 1013.6 |
| 20260507125003 | 41 | 257 | 2.0 | 6.0 | 0.00 | 0.00 | 0.00 | 64 | 1013.5 |
| 20260507124607 | 41 | 283 | 2.0 | 6.0 | 0.00 | 0.00 | 0.00 | 64 | 1013.6 |
| 20260507123729 | 41 | 281 | 3.0 | 8.0 | 0.00 | 0.00 | 0.00 | 64 | 1013.5 |
| 20260507123000 | 41 | 288 | 3.0 | 13.0 | 0.00 | 0.00 | 0.00 | 64 | 1013.5 |
| 20260507122459 | 40 | 270 | 3.0 | 13.0 | 0.00 | 0.00 | 0.00 | 64 | 1013.5 |
| 20260507122232 | 40 | 276 | 3.0 | 8.0 | 0.00 | 0.00 | 0.00 | 64 | 1013.5 |
| 20260507121500 | 40 | 267 | 3.0 | 11.0 | 0.00 | 0.00 | 0.00 | 65 | 1013.5 |
| 20260507120957 | 40 | 237 | 3.0 | 11.0 | 0.00 | 0.00 | 0.00 | 65 | 1013.5 |
| 20260507120457 | 40 | 256 | 4.0 | 9.0 | 0.00 | 0.00 | 0.00 | 65 | 1013.4 |
| 20260507115956 | 40 | 291 | 3.0 | 8.0 | 0.00 | 0.00 | 0.00 | 65 | 1013.3 |
| 20260507115458 | 40 | 254 | 2.0 | 6.0 | 0.00 | 0.00 | 0.00 | 67 | 1013.3 |
| 20260507114952 | 40 | 230 | 3.0 | 6.0 | 0.00 | 0.00 | 0.00 | 67 | 1013.3 |
| 20260507114725 | 39 | 298 | 3.0 | 5.0 | 0.00 | 0.00 | 0.00 | 68 | 1013.3 |
| 20260507113954 | 39 | 249 | 3.0 | 9.0 | 0.00 | 0.00 | 0.00 | 69 | 1013.2 |
| 20260507113453 | 39 | 229 | 2.0 | 9.0 | 0.00 | 0.00 | 0.00 | 71 | 1013.2 |
| 20260507112952 | 39 | 200 | 2.0 | 3.0 | 0.00 | 0.00 | 0.00 | 73 | 1013.2 |
| 20260507112455 | 39 | 194 | 1.0 | 3.0 | 0.00 | 0.00 | 0.00 | 72 | 1013.0 |
| 20260507111954 | 39 | 192 | 0.0 | 3.0 | 0.00 | 0.00 | 0.00 | 72 | 1012.9 |
| 20260507111950 | 39 | 182 | 0.0 | 3.0 | 0.00 | 0.00 | 0.00 | 73 | 1012.9 |
| 20260507110948 | 38 | 192 | 1.0 | 5.0 | 0.00 | 0.00 | 0.00 | 70 | 1012.8 |
| 20260507110451 | 38 | 239 | 1.0 | 5.0 | 0.00 | 0.00 | 0.00 | 69 | 1012.8 |
| 20260507105946 | 38 | 336 | 1.0 | 4.0 | 0.00 | 0.00 | 0.00 | 69 | 1012.8 |
| 20260507105444 | 38 | 296 | 1.0 | 3.0 | 0.00 | 0.00 | 0.00 | 69 | 1012.8 |
| 20260507104942 | 38 | 274 | 1.0 | 4.0 | 0.00 | 0.00 | 0.00 | 69 | 1012.8 |
| 20260507104442 | 38 | 232 | 1.0 | 4.0 | 0.00 | 0.00 | 0.00 | 69 | 1012.7 |
| 20260507103940 | 38 | 227 | 1.0 | 2.0 | 0.00 | 0.00 | 0.00 | 69 | 1012.7 |
| 20260507103440 | 37 | 249 | 1.0 | 4.0 | 0.00 | 0.00 | 0.00 | 69 | 1012.7 |
| 20260507102935 | 37 | 248 | 2.0 | 4.0 | 0.00 | 0.00 | 0.00 | 69 | 1012.7 |
| 20260507102433 | 37 | 286 | 1.0 | 4.0 | 0.00 | 0.00 | 0.00 | 69 | 1012.7 |
| 20260507101933 | 37 | 275 | 1.0 | 3.0 | 0.00 | 0.00 | 0.00 | 69 | 1012.7 |
| 20260507101433 | 37 | 277 | 1.0 | 3.0 | 0.00 | 0.00 | 0.00 | 69 | 1012.7 |
| 20260507100933 | 37 | 276 | 1.0 | 4.0 | 0.00 | 0.00 | 0.00 | 69 | 1012.7 |
| 20260507100437 | 37 | 278 | 1.0 | 4.0 | 0.00 | 0.00 | 0.00 | 69 | 1012.8 |
| 20260507100432 | 37 | 283 | 1.0 | 4.0 | 0.00 | 0.00 | 0.00 | 69 | 1012.7 |
| 20260507095429 | 37 | 299 | 1.0 | 4.0 | 0.00 | 0.00 | 0.00 | 69 | 1012.8 |
| 20260507094930 | 37 | 257 | 1.0 | 4.0 | 0.00 | 0.00 | 0.00 | 69 | 1012.7 |
| 20260507094428 | 37 | 240 | 1.0 | 3.0 | 0.00 | 0.00 | 0.00 | 69 | 1012.7 |
| 20260507093930 | 37 | 273 | 1.0 | 3.0 | 0.00 | 0.00 | 0.00 | 69 | 1012.7 |
| 20260507093429 | 38 | 276 | 1.0 | 3.0 | 0.00 | 0.00 | 0.00 | 69 | 1012.7 |
| 20260507092929 | 38 | 260 | 1.0 | 3.0 | 0.00 | 0.00 | 0.00 | 69 | 1012.8 |
| 20260507092428 | 38 | 270 | 1.0 | 4.0 | 0.00 | 0.00 | 0.00 | 69 | 1012.8 |
| 20260507091925 | 38 | 288 | 1.0 | 4.0 | 0.00 | 0.00 | 0.00 | 69 | 1012.8 |
| 20260507091422 | 38 | 309 | 1.0 | 4.0 | 0.00 | 0.00 | 0.00 | 69 | 1012.9 |
| 20260507090922 | 38 | 255 | 2.0 | 6.0 | 0.00 | 0.00 | 0.00 | 68 | 1012.9 |
| 20260507090423 | 38 | 261 | 2.0 | 6.0 | 0.00 | 0.00 | 0.00 | 69 | 1012.9 |
| 20260507085923 | 38 | 247 | 2.0 | 4.0 | 0.00 | 0.00 | 0.00 | 69 | 1012.9 |
| 20260507085418 | 38 | 271 | 2.0 | 4.0 | 0.00 | 0.00 | 0.00 | 69 | 1012.9 |
| 20260507084918 | 38 | 284 | 1.0 | 6.0 | 0.00 | 0.00 | 0.00 | 69 | 1012.9 |
| 20260507084418 | 38 | 217 | 2.0 | 6.0 | 0.00 | 0.00 | 0.00 | 69 | 1012.9 |
| 20260507083918 | 38 | 275 | 2.0 | 8.0 | 0.00 | 0.00 | 0.00 | 70 | 1012.9 |
| 20260507083419 | 38 | 276 | 2.0 | 8.0 | 0.00 | 0.00 | 0.00 | 70 | 1012.9 |
| 20260507083149 | 38 | 262 | 2.0 | 4.0 | 0.00 | 0.00 | 0.00 | 70 | 1012.9 |
| 20260507082419 | 38 | 269 | 1.0 | 4.0 | 0.00 | 0.00 | 0.00 | 71 | 1013.0 |
| 20260507081916 | 37 | 277 | 1.0 | 4.0 | 0.00 | 0.00 | 0.00 | 71 | 1013.0 |
| 20260507081646 | 37 | 257 | 1.0 | 2.0 | 0.00 | 0.00 | 0.00 | 71 | 1012.9 |
| 20260507080916 | 37 | 248 | 1.0 | 3.0 | 0.00 | 0.00 | 0.00 | 72 | 1012.9 |
| 20260507080415 | 37 | 248 | 1.0 | 3.0 | 0.00 | 0.00 | 0.00 | 72 | 1012.9 |
| 20260507075912 | 36 | 293 | 0.0 | 2.0 | 0.00 | 0.00 | 0.00 | 72 | 1012.9 |
| 20260507075413 | 36 | 293 | 0.0 | 1.0 | 0.00 | 0.00 | 0.00 | 72 | 1012.9 |
| 20260507074908 | 37 | 292 | 0.0 | 1.0 | 0.00 | 0.00 | 0.00 | 72 | 1012.9 |
| 20260507074408 | 37 | 292 | 0.0 | 1.0 | 0.00 | 0.00 | 0.00 | 72 | 1012.9 |
| 20260507073911 | 37 | 292 | 0.0 | 1.0 | 0.00 | 0.00 | 0.00 | 72 | 1012.9 |
| 20260507073408 | 37 | 292 | 0.0 | 1.0 | 0.00 | 0.00 | 0.00 | 73 | 1012.9 |
| 20260507072906 | 37 | 292 | 0.0 | 1.0 | 0.00 | 0.00 | 0.00 | 73 | 1012.9 |
| 20260507072407 | 37 | 292 | 0.0 | 1.0 | 0.00 | 0.00 | 0.00 | 74 | 1012.9 |
| 20260507071903 | 38 | 292 | 0.0 | 0.0 | 0.00 | 0.00 | 0.00 | 74 | 1013.0 |
| 20260507071634 | 37 | 292 | 0.0 | 0.0 | 0.00 | 0.00 | 0.00 | 73 | 1013.1 |
| 20260507070902 | 37 | 292 | 0.0 | 0.0 | 0.00 | 0.00 | 0.00 | 71 | 1013.1 |
| 20260507070402 | 37 | 291 | 0.0 | 0.0 | 0.00 | 0.00 | 0.00 | 70 | 1013.2 |
| 20260507065900 | 37 | 291 | 0.0 | 1.0 | 0.00 | 0.00 | 0.00 | 70 | 1013.3 |
| 20260507065630 | 37 | 291 | 0.0 | 1.0 | 0.00 | 0.00 | 0.00 | 70 | 1013.3 |